Wind_Speed
10 10 9 8 8 8 8 8 8 9 9 9 9 10 10 10 11 10 11 11 10 8 6 5 4 3 2 1 1 1 1 2 3 3 1 3 4 3 3 4 4 3 2 1 2 2 1 3 4 4 4 5 5 5 5 6 6 3 3 4 2 2 2 3 6 6 4 5 7 10 9 8 6 6 10 7 7 10 8 7 9 8 9 10 11 15 17 14
10 10 9 9 9 9 8 8 9 9 9 10 10 10 10 11 11 11 12 11 9 7 6 5 4 3 2 1 1 1 1 2 3 3 2 2 2 4 5 6 5 3 2 1 1 2 2 2 3 3 3 4 4 4 4 5 6 4 3 4 2 4 2 1 5 5 3 7 11 11 9 9 8 9 12 6 4 9 7 6 7 9 11 11 13 16 16 14
10 9 9 9 9 9 9 9 9 9 9 9 10 10 11 11 12 12 12 10 9 7 6 5 4 3 2 2 1 1 1 2 1 3 3 2 4 7 8 7 7 6 4 3 1 1 2 2 3 3 3 4 4 4 5 5 4 2 4 4 3 6 3 2 3 4 6 12 14 10 9 10 10 10 10 7 6 6 6 8 8 10 13 13 14 14 15 14
9 9 9 9 8 8 8 8 8 8 9 9 10 10 11 11 12 12 11 9 8 7 6 5 4 3 3 2 1 1 2 1 2 3 5 5 8 10 10 9 8 7 6 4 2 2 3 3 3 2 3 2 3 3 4 5 2 1 3 3 5 6 3 3 6 5 8 13 13 10 9 9 10 10 9 10 7 3 10 14 11 11 14 15 14 14 14 14
8 8 8 8 7 7 7 7 8 8 8 9 9 10 10 11 11 11 10 9 8 7 6 5 4 4 3 2 1 0 2 3 4 4 4 5 8 10 10 9 7 6 6 4 2 3 4 4 4 4 3 1 2 3 3 5 4 3 2 2 6 7 3 3 7 8 9 10 10 10 8 8 10 8 10 13 7 5 11 15 14 12 13 14 14 14 14 14
9 8 8 8 8 8 7 7 7 7 8 8 8 9 9 9 10 10 9 8 8 7 7 6 5 4 3 3 1 1 1 1 4 5 4 5 7 9 10 8 5 3 4 5 3 2 3 3 5 4 3 2 2 3 3 4 4 2 1 1 4 5 5 7 8 7 9 9 8 8 7 9 9 6 10 12 9 8 9 11 15 14 13 14 13 14 15 15
10 9 9 8 8 8 8 8 8 8 8 8 8 8 8 8 8 9 9 8 8 7 7 6 5 5 4 3 2 3 3 2 6 6 4 5 6 7 8 6 4 1 3 5 3 2 2 3 6 5 4 4 2 2 3 4 4 4 1 0 2 3 6 8 7 7 8 9 9 8 8 9 9 6 7 11 12 11 9 10 14 15 16 16 14 14 15 15
10 10 9 9 9 9 9 9 9 9 8 8 8 8 8 8 8 8 8 8 8 7 7 6 6 5 4 4 3 4 5 4 7 6 5 6 5 5 6 6 5 4 5 5 3 1 2 3 6 5 3 3 2 1 2 4 5 4 2 1 2 2 5 7 6 7 7 7 8 8 9 9 8 5 5 10 12 12 12 12 14 16 18 16 14 14 16 16
10 10 10 10 10 9 10 9 9 9 9 9 9 9 9 9 9 9 9 9 8 8 8 7 6 6 5 5 4 4 5 6 8 7 6 5 5 4 5 5 6 6 5 4 2 3 2 4 5 4 3 3 3 2 3 3 2 1 3 1 0 1 4 6 8 8 7 7 8 7 6 6 6 5 7 11 13 13 14 15 16 18 18 17 15 15 16 18
13 12 12 11 11 10 10 10 10 10 10 10 10 10 10 10 10 10 10 9 9 9 8 8 7 6 6 6 5 3 5 8 9 8 6 5 4 3 3 3 4 4 3 3 3 3 2 3 3 4 4 3 4 2 3 2 2 3 3 0 3 4 5 7 9 10 8 8 9 7 4 4 4 3 6 10 13 15 16 18 18 18 18 17 16 16 17 19
14 14 13 13 12 11 10 10 9 9 9 9 9 10 10 11 11 10 11 10 10 10 9 9 8 7 7 7 7 5 6 10 9 8 7 4 3 3 3 2 1 2 2 3 4 4 2 2 1 1 2 2 2 2 2 4 4 2 1 4 6 5 7 9 10 12 9 5 9 8 3 3 1 3 7 10 13 17 18 19 19 19 18 18 18 18 19 20
16 15 15 14 13 13 12 11 10 9 8 8 8 9 10 11 11 11 11 11 11 10 10 9 8 9 8 9 11 8 7 10 10 9 8 4 4 4 3 3 2 2 3 2 3 3 2 1 1 1 2 3 2 2 3 3 2 1 2 3 6 7 5 8 8 11 10 4 6 6 2 5 4 7 8 8 14 17 18 19 19 19 18 18 19 19 20 21
18 17 17 16 15 14 13 12 11 10 9 9 9 9 9 10 11 11 12 12 11 11 10 10 9 9 8 8 11 10 10 12 11 10 8 6 5 5 4 4 4 3 4 4 3 3 3 2 1 2 3 3 1 2 2 2 2 1 2 1 3 7 5 5 2 8 9 3 6 7 2 6 7 11 9 8 15 18 19 20 19 19 19 19 20 20 22 22
19 19 18 18 17 16 15 14 13 11 11 10 10 10 10 10 11 11 12 12 12 11 10 10 9 9 9 8 8 10 12 14 13 11 10 8 7 6 6 6 6 5 5 5 4 4 4 3 2 1 3 2 2 3 1 3 2 0 1 2 2 2 4 6 2 9 8 3 8 8 1 7 8 10 10 12 16 19 20 21 21 21 21 21 22 22 23 23
22 21 20 20 19 18 17 16 14 13 12 12 11 11 10 10 11 11 12 12 11 11 10 10 9 8 7 8 9 10 13 16 16 14 12 10 8 7 7 8 8 7 6 6 6 5 5 5 3 1 3 2 3 3 3 4 3 2 1 3 3 2 5 9 1 12 8 2 8 7 1 7 9 9 9 15 18 20 21 22 22 23 23 23 23 23 24 24
22 22 23 22 21 20 19 18 16 15 14 13 12 11 11 10 11 11 12 11 11 10 10 9 9 8 4 6 9 10 14 17 16 15 14 12 9 8 8 8 8 8 7 6 6 6 5 5 3 2 3 2 3 4 4 3 4 4 1 3 2 2 3 6 2 8 6 4 4 4 2 4 6 5 8 16 20 21 21 21 24 25 25 26 25 25 25 25
21 22 23 23 23 22 21 20 18 17 16 14 13 12 11 11 11 11 11 10 10 10 9 7 7 7 6 7 9 12 16 18 16 15 14 13 11 9 8 9 9 9 7 6 6 5 6 5 4 2 1 2 3 5 4 2 4 4 1 2 4 3 2 3 4 4 4 4 4 4 3 7 7 3 9 17 20 21 22 24 26 26 27 27 27 27 27 27
19 21 23 24 24 23 23 22 20 18 18 16 14 13 12 12 11 11 10 10 9 6 6 7 6 2 7 13 13 12 15 16 15 15 14 13 11 10 10 9 8 9 7 6 5 6 6 3 4 1 2 2 2 5 3 4 4 3 3 2 3 3 2 4 4 3 6 3 4 4 4 11 12 9 11 18 20 22 25 26 25 26 28 28 29 29 29 30
15 19 21 23 23 24 24 23 21 20 19 17 15 13 12 11 10 10 10 11 11 6 3 10 13 5 2 11 16 14 11 13 15 15 15 14 12 12 11 9 9 10 8 5 2 5 6 3 4 2 1 3 4 6 7 8 7 6 6 4 3 3 3 5 5 6 8 4 4 8 7 11 13 12 13 18 22 24 27 25 23 24 27 29 31 32 32 32
13 15 18 21 22 24 24 25 23 21 21 19 16 14 11 8 5 6 11 16 18 16 10 12 18 13 3 3 12 14 11 12 16 17 16 15 14 13 11 10 10 7 5 5 3 4 6 3 2 5 7 8 8 9 8 5 5 4 4 3 3 4 5 5 4 6 6 5 5 9 9 11 12 11 13 15 18 21 25 24 24 26 28 32 34 34 35 35
12 13 15 17 20 22 24 25 24 23 22 20 18 14 10 9 6 3 9 15 20 23 21 14 14 17 11 3 7 12 11 13 15 17 17 17 16 13 12 11 7 3 3 5 6 3 5 4 7 10 10 9 7 8 6 3 2 1 2 2 4 4 5 6 4 4 2 4 6 6 7 11 12 12 14 11 11 18 27 27 29 31 32 34 35 36 36 35
13 12 13 15 17 19 21 24 24 24 24 22 21 17 13 12 11 8 6 8 14 19 23 22 18 19 17 11 9 11 12 10 13 18 19 20 19 14 12 10 4 3 3 5 6 3 2 4 11 12 7 5 3 4 5 5 5 3 2 2 4 3 4 6 4 3 1 3 5 4 4 10 12 11 12 14 15 21 30 32 34 36 34 35 36 37 37 36
15 13 13 14 15 16 19 22 24 24 25 24 22 20 16 14 13 12 8 6 10 15 21 25 26 26 24 19 15 16 15 10 12 20 22 23 22 17 14 10 4 4 5 5 6 4 3 6 13 12 8 6 3 4 5 3 4 4 3 2 4 4 2 4 5 3 1 2 3 4 5 8 10 8 10 19 23 24 29 31 34 36 35 37 38 39 39 40
17 15 14 15 14 15 16 19 23 24 24 24 23 21 18 15 13 11 8 5 7 12 18 22 25 30 30 25 20 21 21 15 13 20 25 27 23 15 13 11 5 5 5 9 9 6 6 6 4 7 10 8 6 5 6 4 3 5 6 6 6 5 6 6 4 3 3 4 2 3 6 7 8 9 10 13 13 18 25 25 29 34 37 37 36 37 40 41
20 18 17 16 16 16 15 18 22 23 23 23 23 20 18 15 11 7 4 3 5 6 11 16 19 24 28 26 23 22 20 17 17 20 25 30 25 14 9 10 6 4 7 8 7 5 8 7 3 7 6 7 7 5 6 7 4 5 6 9 10 8 8 5 2 4 4 5 3 2 4 7 5 7 10 6 2 9 16 17 24 33 34 35 35 36 39 40
23 21 19 19 18 16 15 18 20 20 22 23 22 19 17 12 9 6 3 3 5 3 4 10 12 14 19 24 24 18 9 13 19 22 24 29 26 14 7 7 4 4 7 6 3 3 5 8 5 6 6 7 6 5 5 7 5 4 6 9 10 7 5 4 1 2 1 4 4 2 2 7 6 5 8 6 5 10 11 11 20 29 30 33 37 37 38 39
27 23 20 20 21 19 19 18 17 18 20 19 19 20 17 13 10 7 4 4 5 5 7 8 9 10 13 20 30 20 3 8 15 19 26 30 25 14 6 6 3 3 6 5 3 3 4 7 6 6 6 6 5 5 6 8 7 4 5 6 7 6 5 5 4 4 3 3 4 2 2 5 8 6 6 6 8 12 12 11 16 25 29 32 35 36 37 39
30 26 23 23 23 24 23 20 18 19 17 13 18 21 17 16 13 8 5 1 3 5 6 7 9 12 12 21 34 20 6 12 11 15 29 31 25 13 6 8 7 6 8 7 4 4 4 7 8 8 6 5 6 5 7 10 5 6 4 7 6 6 5 3 5 3 1 2 4 5 1 3 8 6 2 1 6 10 13 13 15 21 28 30 32 34 36 39
32 30 28 26 25 26 25 24 23 18 13 9 16 22 20 19 13 6 4 2 3 3 4 7 8 10 13 21 27 16 9 8 4 13 27 25 23 11 2 8 8 7 8 6 5 3 1 4 8 8 6 6 6 3 7 11 5 4 6 7 6 5 5 4 5 3 2 1 6 7 3 4 7 4 1 1 3 9 11 12 12 17 22 25 29 33 35 37
30 32 32 29 27 28 26 29 26 16 13 12 17 25 25 19 10 4 3 3 2 1 4 8 7 10 17 16 10 6 6 2 4 16 17 12 17 9 3 6 6 5 3 3 1 3 2 0 3 4 4 5 5 3 2 6 7 8 7 6 6 6 5 4 3 4 1 4 7 9 9 7 6 3 4 3 4 7 7 8 9 11 14 19 24 30 34 36
25 29 32 32 32 32 30 34 30 21 21 18 21 29 24 10 3 4 6 1 1 2 5 4 4 9 16 14 7 5 3 1 7 15 9 4 8 6 4 5 3 4 1 5 3 4 5 1 1 2 4 6 7 5 3 2 6 8 5 5 4 4 4 4 4 3 1 6 6 7 8 8 7 6 3 5 6 5 6 7 8 9 12 16 20 25 31 35
23 25 30 33 36 36 36 38 29 23 26 22 25 29 19 4 2 5 5 1 1 5 5 4 4 7 12 11 8 8 4 2 7 10 6 5 6 6 6 6 5 3 3 6 3 4 3 3 3 2 3 6 6 4 3 4 3 5 5 6 4 2 2 2 3 0 4 7 4 3 1 4 9 8 7 9 11 10 10 11 11 12 14 16 17 21 27 32
22 24 28 33 37 39 40 37 27 25 27 25 27 20 8 3 7 9 8 5 2 3 4 4 4 7 11 9 5 5 4 2 6 6 4 5 5 7 6 5 5 3 2 6 3 1 3 5 2 0 3 8 9 6 3 1 3 6 6 6 5 2 1 3 4 2 4 5 4 2 2 3 6 6 11 15 16 18 19 20 20 17 17 17 16 18 23 29
21 22 27 32 36 39 40 37 30 29 29 30 26 12 4 5 7 10 14 11 4 2 3 4 6 7 8 5 4 7 4 3 6 5 3 5 5 6 5 6 7 2 3 4 3 5 5 6 4 6 4 9 12 8 6 5 5 5 4 6 6 5 4 4 4 4 4 3 4 2 2 4 3 3 8 11 13 17 21 25 26 24 22 20 18 18 23 29
22 21 25 30 36 40 42 41 35 31 34 32 19 8 9 8 6 9 13 10 3 3 3 4 8 7 5 2 3 7 5 3 6 5 3 6 6 7 7 8 11 6 5 4 2 4 5 6 6 4 3 11 11 6 6 8 2 3 3 5 3 5 5 3 3 4 3 2 3 2 3 5 5 5 7 7 9 11 15 20 23 23 20 17 17 21 25 29
23 23 25 30 39 42 43 45 38 35 39 28 10 6 11 9 7 7 7 7 6 5 6 4 5 5 5 2 2 6 3 1 6 5 3 4 4 7 8 7 11 12 9 7 3 3 3 5 4 2 2 5 6 5 5 4 3 1 3 4 4 4 5 2 3 1 2 3 4 3 5 5 3 7 9 8 9 9 10 14 17 18 15 14 19 23 26 29
23 24 27 34 40 40 44 47 39 39 40 24 9 9 9 9 11 7 3 4 6 8 9 5 3 6 7 5 5 8 4 2 5 5 4 3 3 7 8 5 8 15 14 7 2 3 5 2 4 2 2 3 1 4 3 3 5 5 4 6 2 2 2 2 2 3 3 4 4 3 7 6 2 6 4 1 7 10 10 12 13 13 13 18 23 24 26 29
22 23 30 37 40 40 46 47 41 44 36 16 8 11 8 9 15 11 4 4 6 7 7 9 8 8 9 8 6 9 8 5 6 6 4 4 5 8 11 6 7 18 21 11 2 2 4 2 4 1 2 2 2 4 3 4 3 4 4 5 4 2 2 2 2 2 1 4 5 3 6 6 5 5 2 2 9 11 12 12 10 10 16 23 26 25 25 28
19 19 25 35 38 41 46 46 48 46 26 9 9 11 9 10 14 15 11 7 7 7 8 11 8 4 6 8 6 7 9 8 9 7 5 5 5 7 14 12 8 15 22 16 5 2 3 3 3 1 0 1 2 2 4 1 2 3 2 2 2 2 3 3 3 3 3 3 4 3 3 4 6 7 7 9 12 12 13 11 8 13 23 28 28 26 27 29
17 13 17 28 32 37 46 48 48 35 12 7 12 11 9 9 11 19 21 12 5 5 8 10 8 5 6 8 7 8 9 8 10 8 5 7 6 5 11 13 5 8 18 18 8 2 2 3 3 2 2 1 2 4 8 10 7 4 4 4 2 1 2 1 1 2 4 3 3 4 6 5 4 5 8 11 12 11 11 10 9 17 27 30 29 28 29 30
17 9 13 22 19 28 45 41 27 17 8 8 12 11 9 6 6 17 25 19 7 4 6 7 8 9 7 8 8 8 7 6 8 8 5 7 8 4 9 15 11 9 11 10 8 6 3 3 4 2 1 4 5 4 6 9 8 7 7 9 9 6 4 2 3 1 2 3 4 3 8 8 4 4 6 8 9 10 12 12 12 19 27 29 28 29 29 30
17 10 14 17 13 26 40 24 10 12 11 10 12 8 7 5 4 10 19 21 12 6 4 3 6 10 8 8 8 7 8 6 7 8 6 9 11 6 11 21 22 19 14 8 11 11 5 3 4 3 4 5 6 5 3 4 3 3 3 5 7 6 6 5 5 4 2 2 2 2 6 9 3 4 5 6 6 8 11 12 13 21 26 25 25 27 27 29
19 17 18 14 14 30 31 11 7 12 7 10 10 4 6 7 5 7 13 17 13 7 6 4 3 8 8 6 7 8 8 7 9 11 8 8 11 9 14 23 24 20 13 7 7 7 5 3 3 1 2 3 4 4 2 2 1 2 2 3 6 7 7 5 4 3 3 4 3 2 6 7 2 1 2 5 7 8 11 12 14 22 25 22 23 24 24 27
19 20 18 12 17 31 23 5 7 9 6 10 9 5 9 10 9 10 10 13 13 8 7 6 4 7 7 4 7 10 11 8 9 13 10 5 8 12 19 26 24 15 10 8 9 9 6 3 3 2 1 2 3 3 2 1 2 3 3 5 7 9 7 3 1 2 2 8 8 4 10 9 2 4 4 4 5 7 11 13 13 19 24 24 22 21 22 25
15 15 16 20 29 34 23 13 11 8 7 11 10 10 12 8 12 18 12 10 15 11 7 8 7 5 4 3 4 8 12 11 8 9 9 5 3 6 17 27 25 17 14 17 21 19 9 4 6 6 7 8 7 7 6 3 3 2 4 7 10 11 11 7 2 4 7 7 8 7 13 10 2 4 5 5 4 4 9 12 12 17 23 24 22 21 22 25
10 8 8 18 33 37 30 25 21 10 9 13 9 10 14 9 10 20 17 11 15 16 12 9 8 6 4 4 5 5 10 12 6 5 7 8 3 1 10 22 24 17 13 15 20 16 5 3 11 13 13 14 13 9 5 8 8 8 10 13 13 14 14 9 5 8 7 1 4 13 16 14 10 6 5 6 3 5 8 9 12 18 21 22 22 22 23 24
8 5 5 9 18 25 23 22 19 9 10 15 7 5 15 15 9 12 17 15 16 17 12 7 6 8 7 7 7 7 9 8 5 5 6 8 4 1 4 12 15 13 8 8 12 9 3 4 14 18 18 20 18 10 9 13 15 16 16 14 15 15 14 12 13 13 7 4 10 17 11 12 19 14 11 10 6 5 7 11 17 20 20 21 22 22 22 23
9 5 11 14 9 8 12 16 16 12 12 14 8 5 12 17 14 10 13 16 18 17 10 6 9 12 13 13 10 7 7 6 6 7 5 5 3 1 2 3 6 8 6 4 7 6 2 6 12 15 18 21 18 9 10 12 11 12 15 16 16 17 17 18 21 18 9 7 17 18 8 12 22 18 13 11 9 12 17 19 21 21 20 22 21 22 25 25
13 9 12 17 12 6 10 16 17 16 14 11 7 7 10 15 18 14 10 9 12 14 12 10 14 17 17 15 10 8 9 8 9 10 6 5 5 4 4 2 2 4 5 4 3 3 1 3 3 7 12 17 17 9 9 9 5 4 10 13 14 18 21 22 21 19 14 15 21 21 14 18 19 12 10 13 17 23 24 20 21 22 24 26 24 25 27 28
15 10 8 10 11 11 12 13 12 11 13 12 8 9 10 13 17 15 11 9 9 12 15 17 19 18 16 15 13 13 13 12 14 13 9 8 6 5 5 4 3 2 3 4 2 1 2 2 2 3 5 12 15 9 6 8 6 6 8 11 15 19 18 17 15 15 14 16 21 21 19 20 12 5 10 16 17 18 17 18 23 26 28 28 26 28 30 31
20 18 13 7 5 8 8 7 7 6 8 9 8 7 9 15 18 15 13 16 16 12 14 21 23 16 14 16 15 16 18 18 18 12 9 9 8 7 7 5 7 6 3 4 3 3 4 3 2 4 3 8 11 9 5 6 5 7 12 17 21 17 11 11 13 14 15 16 19 17 16 18 11 5 8 11 11 13 16 20 24 26 28 28 28 31 33 32
23 25 23 12 3 5 6 4 6 8 7 8 10 9 10 13 16 13 10 14 19 19 18 22 22 13 10 15 20 28 32 27 19 10 5 8 10 8 10 9 10 10 6 4 3 3 6 4 1 3 4 7 5 4 5 4 3 7 15 21 21 15 11 12 13 15 17 15 14 13 14 19 14 7 7 8 8 12 17 22 26 27 28 29 30 32 32 31
Wind_Direction
201 203 207 211 212 214 213 211 207 203 199 195 194 194 193 190 189 188 185 182 182 186 188 189 192 194 204 215 211 216 229 307 356 8 329 256 253 241 169 156 154 151 161 189 188 195 168 88 91 88 78 74 58 59 63 48 43 60 93 81 91 160 178 186 187 195 173 163 182 183 171 152 147 143 138 129 138 137 131 136 137 154 161 169 180 177 183 191
203 206 207 207 209 210 208 207 204 201 199 195 193 192 192 190 188 187 184 185 187 190 192 194 197 201 215 226 246 248 250 318 359 8 338 278 228 176 152 144 138 126 115 116 190 207 184 106 100 90 75 87 63 58 68 48 52 67 97 91 169 201 203 216 185 199 182 157 166 172 175 169 165 158 154 155 149 140 130 126 139 161 169 173 177 180 190 194
204 204 203 203 205 206 202 202 200 198 195 193 192 189 188 187 186 185 185 188 191 194 196 199 206 211 223 234 261 271 292 305 359 28 32 88 130 142 143 140 126 101 84 75 90 163 159 106 98 88 71 83 66 69 67 46 51 55 86 91 230 208 173 52 123 180 188 158 149 152 171 175 168 163 167 174 167 169 174 165 168 182 184 182 181 185 192 195
204 201 199 200 202 202 199 199 198 197 194 191 190 187 185 185 185 186 190 194 196 198 199 203 210 217 229 237 266 312 345 348 144 79 64 107 129 139 141 140 123 88 71 71 95 108 114 106 98 77 68 79 64 80 59 35 41 44 94 143 205 183 143 86 104 122 158 152 147 145 149 159 168 175 180 162 145 232 224 200 204 211 202 193 187 187 189 194
198 197 196 195 196 197 197 198 198 196 196 194 190 188 187 187 189 192 196 198 198 199 203 208 214 222 233 230 254 290 52 73 146 112 90 128 139 148 149 144 126 84 64 58 92 117 112 107 97 67 60 75 53 73 44 35 66 67 49 160 165 161 154 144 123 119 148 154 149 146 145 162 174 185 186 171 163 233 229 217 220 223 213 203 196 190 186 189
193 193 194 195 194 194 196 197 198 197 198 197 195 194 193 195 197 200 202 203 202 202 206 210 216 225 235 230 244 203 124 109 167 136 120 149 150 160 163 160 143 86 42 29 27 114 118 92 79 61 58 58 40 71 56 33 64 94 327 50 132 164 162 160 152 141 156 163 160 162 170 173 173 195 204 199 215 234 234 223 218 218 209 203 201 195 189 189
195 196 197 201 201 201 200 199 199 200 201 201 201 202 202 203 204 207 208 207 207 206 209 212 217 227 236 233 241 238 234 207 172 152 143 160 168 180 181 188 193 270 339 360 5 106 131 88 71 66 72 67 62 72 56 43 68 100 159 328 91 141 155 162 174 170 170 178 183 178 176 179 179 194 215 221 233 236 231 214 211 211 200 196 200 199 195 194
200 202 205 210 213 214 212 210 206 204 206 205 206 207 207 209 211 214 213 213 213 211 215 215 217 225 234 235 240 255 245 200 168 158 158 170 185 199 205 222 239 281 306 320 325 156 141 89 76 79 89 82 109 110 66 58 47 75 138 230 95 142 172 174 189 191 189 191 186 181 187 197 196 205 237 232 230 225 215 204 201 201 197 198 203 205 202 201
206 207 208 215 219 221 222 221 218 215 214 212 212 212 213 215 215 218 220 220 218 217 219 218 220 222 230 234 232 256 242 194 171 167 167 179 192 210 230 248 257 278 295 298 267 197 163 99 82 85 113 109 113 104 67 63 8 106 138 135 99 216 203 199 213 214 212 208 196 196 214 218 208 230 262 242 225 214 203 197 197 197 200 203 209 214 212 212
209 208 207 212 216 220 223 222 223 222 221 220 219 218 219 221 221 222 223 224 222 222 221 220 222 219 226 231 219 238 218 178 171 177 171 174 187 216 237 251 267 269 268 254 223 198 169 117 88 83 103 99 102 93 44 84 149 149 126 253 258 252 248 230 230 232 224 222 217 211 232 245 208 202 249 236 212 205 198 193 196 200 205 210 216 219 219 219
214 213 210 210 213 216 220 222 224 223 224 225 224 223 224 226 226 226 226 226 225 224 223 222 223 221 224 220 211 214 190 175 174 179 173 172 186 207 216 218 253 229 196 213 217 205 179 139 103 87 111 105 101 90 75 107 131 138 57 310 289 299 281 248 235 231 215 220 227 210 239 288 178 187 240 231 205 204 201 198 201 205 212 217 220 222 221 221
219 219 217 215 214 215 218 221 222 225 228 228 229 230 229 229 230 229 230 230 228 227 226 223 223 224 224 223 226 225 195 186 183 179 181 192 205 208 214 204 191 175 160 177 216 205 174 142 129 124 140 144 135 74 104 113 109 118 55 323 305 352 322 248 239 222 198 209 221 190 296 297 221 219 238 224 204 202 202 205 208 210 216 220 222 224 222 221
225 223 223 222 220 218 219 220 221 225 229 232 234 232 232 233 232 231 232 233 232 231 229 227 226 226 225 230 236 228 206 199 194 191 201 217 218 214 218 211 199 180 160 162 180 176 159 158 155 130 125 133 159 129 129 100 94 188 61 51 311 359 336 272 273 197 182 196 189 160 282 276 247 237 228 209 202 198 200 208 213 213 217 221 223 225 223 221
233 230 228 226 226 224 222 222 223 225 231 236 236 234 234 233 233 232 233 235 235 235 234 232 229 225 226 235 239 224 210 208 208 213 223 227 221 217 221 217 211 198 180 178 174 170 172 177 192 158 134 116 132 135 81 23 61 240 25 32 360 3 281 305 11 161 162 206 179 148 250 263 270 260 229 209 204 201 205 209 213 217 219 223 225 226 225 221
237 236 234 232 230 228 227 226 226 227 230 234 238 240 239 237 236 233 233 234 235 237 236 234 230 224 231 241 237 222 215 215 217 221 226 228 223 219 219 216 213 205 195 195 191 189 189 190 205 175 137 128 118 108 19 358 12 36 42 314 339 159 263 311 267 167 162 195 180 152 249 265 280 278 226 203 202 205 211 213 216 220 221 224 226 227 226 222
238 238 238 237 235 232 231 229 228 229 231 233 238 242 242 243 240 235 234 232 232 233 231 231 227 219 232 246 233 223 220 219 218 219 221 225 223 218 215 213 210 207 205 206 207 204 197 186 173 136 141 148 116 87 45 10 340 358 108 245 267 184 268 323 292 193 170 136 187 203 241 265 288 285 203 195 201 206 213 219 220 222 224 224 226 227 225 222
237 237 238 238 238 237 234 231 229 230 233 233 236 243 247 247 243 239 233 227 227 225 221 220 219 222 241 243 231 228 226 221 217 217 219 223 221 213 212 209 202 205 206 201 199 188 179 164 145 148 107 85 96 90 63 338 296 318 344 230 242 207 220 298 307 245 171 140 208 230 243 252 272 275 193 197 204 207 215 224 224 223 224 224 226 227 225 224
239 237 237 238 238 239 238 236 232 231 235 234 235 241 246 248 246 239 229 221 214 207 218 211 189 214 248 232 226 230 229 221 215 213 214 214 208 201 204 205 199 197 183 174 177 159 157 130 110 119 12 33 84 104 131 224 211 203 196 208 253 242 222 246 280 222 166 167 217 202 246 256 267 270 223 211 208 211 223 229 229 226 225 225 226 227 226 226
245 241 238 237 238 238 239 239 235 234 236 235 235 238 242 246 243 238 227 209 193 179 211 209 193 176 246 226 221 227 228 213 207 207 207 203 195 191 193 190 185 179 162 148 157 151 145 90 77 109 234 217 194 162 186 206 176 170 178 161 185 228 253 237 257 231 177 169 226 207 227 247 257 262 242 224 213 216 230 235 234 232 229 227 227 228 228 228
248 248 244 240 238 238 239 239 237 235 235 235 234 231 229 218 211 236 221 211 213 215 222 217 209 210 233 233 217 219 213 199 200 201 199 197 189 180 175 169 163 162 159 153 168 160 139 124 169 203 211 206 200 196 202 185 142 139 144 151 197 216 268 256 265 264 181 164 245 223 227 248 252 258 257 239 217 220 233 237 237 234 231 229 227 229 229 228
247 249 249 247 242 239 239 239 237 234 233 234 229 222 214 197 190 229 217 223 233 231 232 234 222 219 225 238 219 214 200 190 196 197 195 193 182 172 170 165 144 143 197 145 125 126 132 166 223 221 211 201 198 202 210 197 161 181 168 242 259 218 255 256 247 283 185 173 262 247 238 257 255 256 265 246 205 222 231 231 236 235 232 231 229 229 229 228
246 247 248 250 248 244 240 238 237 234 232 230 225 220 218 212 216 228 230 247 251 241 237 234 228 225 223 224 225 213 196 186 193 195 191 184 179 181 175 164 146 164 172 123 104 100 139 217 240 229 198 170 189 183 189 220 233 246 221 254 273 241 269 279 274 305 126 179 264 280 255 260 259 257 261 243 219 232 237 234 239 238 233 230 229 229 228 226
240 245 247 248 249 249 243 239 237 234 230 228 227 223 222 223 223 229 241 269 267 251 239 234 233 229 222 222 223 211 202 198 193 191 187 180 183 189 177 164 164 149 142 155 154 149 176 242 247 223 171 149 210 188 156 195 245 239 219 221 253 245 251 276 289 311 311 225 260 289 286 269 263 262 258 247 236 241 247 244 245 243 238 236 235 233 229 226
235 236 243 245 247 247 244 242 238 234 229 227 228 227 226 227 223 227 235 261 280 255 242 241 237 233 228 224 221 212 209 213 204 192 186 182 180 182 183 177 150 137 176 191 180 182 209 239 237 176 162 168 200 203 167 174 244 247 217 207 229 234 217 230 282 324 334 333 336 327 303 278 252 246 251 254 243 245 251 248 247 246 242 242 240 235 231 228
236 232 236 238 241 242 241 241 237 234 230 227 228 225 224 225 216 216 226 278 288 259 246 240 234 237 231 223 217 208 209 221 221 204 192 189 182 169 182 186 160 173 200 188 179 213 236 236 132 115 149 173 183 211 195 180 215 264 228 208 215 216 216 230 346 20 3 329 327 17 301 279 262 242 251 274 286 252 251 242 242 246 243 239 236 232 229 227
239 235 233 234 237 233 229 236 238 234 230 229 226 217 212 207 188 182 142 26 286 238 195 211 219 228 218 209 199 187 204 231 221 211 199 194 189 172 166 179 169 203 187 163 180 229 232 225 186 133 145 164 180 224 219 179 177 258 240 203 201 193 195 224 158 77 277 261 291 67 197 269 285 244 242 256 261 259 253 241 244 247 243 236 234 232 228 225
238 239 236 236 237 227 221 231 236 227 225 227 219 205 196 182 160 157 123 17 281 193 152 183 192 191 198 195 182 172 195 201 193 205 198 191 192 186 185 181 159 201 169 140 228 246 181 203 204 168 160 163 181 225 222 170 157 238 241 162 162 171 189 214 177 178 227 251 309 360 143 266 279 253 239 227 241 263 264 257 256 250 245 240 235 231 228 227
234 237 238 238 240 237 231 233 235 227 223 222 206 194 180 167 157 139 118 325 252 150 148 181 173 176 182 181 180 174 138 148 157 197 192 189 194 195 208 199 172 183 177 157 220 256 151 176 198 181 179 197 201 215 188 160 165 242 207 125 132 155 161 149 136 178 289 30 292 289 129 256 269 265 290 213 233 261 264 257 255 252 248 243 237 233 230 229
234 234 237 239 241 242 236 229 231 228 220 210 191 183 170 159 150 111 98 221 207 129 150 170 162 168 158 165 182 179 137 144 144 181 183 188 195 195 220 200 179 174 191 191 208 240 118 186 196 172 178 210 206 211 173 170 191 197 139 93 72 76 78 76 106 125 39 36 245 245 187 240 269 244 208 30 243 250 258 258 256 257 255 248 241 235 229 227
241 237 236 233 228 228 228 226 227 215 195 191 180 173 164 154 137 106 182 216 211 153 141 160 169 166 151 152 188 188 143 144 119 153 168 184 190 188 123 162 156 144 207 309 244 239 333 137 195 175 188 184 146 92 146 177 166 134 106 63 46 31 38 42 58 89 39 268 240 225 200 210 270 263 197 210 230 229 241 262 270 269 260 252 246 237 229 226
243 243 241 235 226 222 222 226 225 200 182 181 174 168 160 151 122 165 198 231 325 175 131 157 177 156 158 159 180 185 143 87 139 150 156 160 176 175 132 144 123 104 301 307 292 312 340 49 241 222 177 135 107 77 37 81 129 117 89 80 70 348 9 19 358 51 236 253 242 234 209 196 236 258 233 241 260 247 228 244 264 271 262 254 248 239 231 226
239 243 245 243 237 228 224 232 227 194 180 177 172 169 159 155 232 207 200 80 310 201 159 179 191 162 170 171 173 172 142 138 168 163 160 152 169 184 182 187 169 137 250 238 240 329 309 238 276 312 192 166 126 92 37 21 70 104 100 109 112 308 352 345 302 164 235 251 265 279 197 201 238 249 252 261 270 258 238 239 247 256 263 261 253 243 232 225
238 240 246 246 242 233 229 236 228 193 183 174 168 169 160 186 201 202 203 183 204 205 146 148 155 155 163 165 179 168 127 171 182 172 169 152 173 208 223 221 181 159 196 192 181 201 263 296 307 49 252 203 170 158 181 219 164 153 142 141 154 170 170 266 258 260 262 263 298 329 159 240 273 261 237 238 247 249 251 258 260 260 263 268 264 250 235 226
240 242 247 247 249 242 235 235 222 193 180 170 164 165 189 211 201 199 210 211 200 73 104 130 120 137 160 168 196 169 146 220 183 157 155 151 170 213 231 234 212 168 105 152 172 177 213 287 210 185 210 187 185 191 171 138 155 182 155 142 159 160 173 218 212 220 253 277 303 300 183 204 224 246 233 233 252 257 257 261 265 269 268 267 262 245 231 225
242 242 244 245 247 243 235 231 219 191 176 170 163 171 189 200 209 207 216 215 182 56 47 113 112 130 183 250 246 184 172 219 178 153 162 173 189 199 196 211 203 176 136 175 218 166 199 264 235 210 160 165 182 190 128 108 138 233 117 122 179 183 176 214 203 181 193 291 290 233 228 222 213 262 262 256 276 274 264 262 263 267 268 261 247 233 225 223
245 241 243 242 240 238 232 227 214 186 176 172 166 197 196 202 205 197 212 208 182 130 105 103 93 132 187 211 242 212 200 135 156 163 198 200 223 206 199 215 197 186 182 178 182 150 173 272 278 16 66 174 181 166 141 144 178 168 129 172 208 178 156 199 268 42 75 270 261 201 248 286 303 280 265 244 256 271 276 269 260 260 260 250 240 229 223 221
244 241 243 240 238 238 231 224 208 184 179 177 188 205 196 215 213 192 190 193 170 138 135 169 180 161 181 189 203 203 191 131 158 176 197 197 245 210 203 235 196 193 202 186 180 194 162 253 279 127 163 251 106 106 83 59 125 130 182 202 171 68 103 124 254 349 35 260 267 216 239 267 270 273 299 196 231 255 264 259 259 260 248 240 239 231 224 222
245 247 246 243 241 237 230 223 203 185 183 183 212 214 198 216 215 201 180 162 154 147 169 207 198 168 182 189 191 186 176 171 178 186 185 191 242 202 181 208 203 199 207 198 200 234 160 214 291 110 172 270 43 101 73 15 77 125 176 182 124 126 202 121 165 225 197 254 282 260 240 242 213 231 289 176 208 232 245 245 253 254 239 237 238 231 225 221
246 249 250 248 242 234 231 221 198 187 188 187 204 216 210 210 210 205 199 184 175 180 199 216 208 178 185 182 167 169 180 183 173 178 187 190 231 202 178 192 206 199 200 192 190 230 156 196 268 337 315 320 42 140 179 214 11 48 96 146 108 135 177 162 165 167 157 232 281 287 251 233 213 206 202 206 207 213 229 234 237 242 241 240 238 231 226 222
243 244 255 250 242 233 224 208 192 188 198 203 199 208 208 202 203 207 209 202 177 191 217 225 214 197 193 184 170 166 184 189 171 180 205 191 208 229 190 187 179 181 187 186 193 191 131 205 233 322 340 226 192 202 186 180 176 159 157 172 180 135 114 159 198 136 135 177 241 275 274 254 216 196 192 204 210 208 217 223 228 240 244 244 242 237 232 228
237 239 255 245 242 224 208 195 188 195 207 210 213 216 206 193 185 201 210 216 217 219 234 235 220 212 197 185 189 177 173 181 179 188 213 201 206 238 201 185 164 146 161 178 203 201 186 195 172 164 237 207 223 246 207 195 189 180 185 188 184 171 136 160 243 218 141 191 191 222 276 269 219 194 199 203 207 206 212 218 226 240 245 248 246 242 240 236
230 233 245 235 225 205 195 186 193 202 201 212 217 210 185 179 171 182 200 215 228 247 259 263 228 219 204 189 197 181 163 174 186 192 213 213 209 214 199 187 171 155 151 174 205 194 160 116 136 179 222 218 240 270 246 222 201 156 198 193 175 176 161 165 219 221 158 239 191 135 282 277 232 187 213 228 226 220 227 227 232 244 250 253 252 248 246 243
223 227 237 234 218 199 190 188 210 198 216 236 223 190 160 182 194 169 185 205 215 217 224 238 227 219 214 189 183 181 177 183 190 196 211 218 215 215 197 183 170 160 159 176 201 178 132 121 166 215 306 309 300 311 351 19 102 140 244 177 169 201 197 177 201 180 157 225 189 132 268 269 298 280 260 275 269 263 261 246 236 248 257 261 259 254 250 244
231 232 229 224 211 197 188 198 207 197 229 238 237 226 198 202 206 192 186 196 204 207 210 216 217 222 221 177 170 187 190 193 201 203 207 210 214 215 198 184 173 169 181 183 171 165 166 177 159 159 278 319 323 296 284 290 190 193 222 199 195 205 194 170 105 108 231 228 178 179 254 252 292 319 315 321 307 287 271 256 243 252 261 263 262 258 254 248
237 235 221 208 203 198 199 210 201 196 215 218 229 225 214 216 208 208 208 199 207 217 222 218 212 222 232 179 169 192 195 202 210 205 209 220 222 207 197 191 183 182 197 190 172 165 170 181 163 181 220 222 219 223 217 196 166 190 212 198 202 203 191 189 191 193 236 229 159 193 248 253 290 323 308 317 331 297 271 264 253 253 259 263 263 260 256 251
228 222 210 199 197 199 207 212 205 200 206 210 221 217 217 227 212 209 210 207 213 218 229 233 206 206 232 189 173 199 207 214 209 177 200 211 216 212 191 192 192 197 210 197 175 161 143 191 190 198 215 221 227 226 165 130 149 200 209 194 197 205 197 194 212 219 219 173 185 222 238 257 267 269 281 285 274 262 268 268 257 252 255 260 260 258 257 253
240 202 191 191 196 201 206 208 204 202 202 204 203 195 209 219 222 206 203 209 211 207 223 245 199 200 218 195 195 209 203 207 199 178 196 200 204 321 172 181 190 198 207 200 181 159 103 206 205 208 215 224 233 221 156 154 177 198 202 193 198 204 196 194 215 220 180 119 250 242 219 248 262 253 246 254 252 259 260 250 250 253 255 258 258 256 255 251
248 232 212 206 199 201 204 201 199 203 207 203 200 206 210 213 218 204 197 212 212 199 204 227 208 211 213 201 203 206 184 185 207 204 195 186 180 151 153 169 176 173 159 162 169 143 133 220 216 213 220 232 237 211 165 176 183 190 197 197 199 199 196 202 216 220 187 181 248 251 196 219 252 254 246 238 221 233 242 242 248 254 258 260 257 253 253 250
242 269 247 222 213 215 213 203 197 205 213 202 196 217 214 212 217 213 197 204 211 202 199 209 213 213 213 208 204 203 194 189 210 213 185 172 181 161 167 196 162 149 123 116 129 105 162 242 222 203 226 244 245 216 168 176 164 173 203 203 203 205 205 208 216 222 214 216 243 254 243 241 252 255 248 234 223 234 244 247 248 250 252 253 251 250 253 250
229 246 267 244 234 231 219 201 189 204 214 203 199 209 206 210 216 215 207 193 193 198 200 212 220 212 208 212 208 216 217 203 213 216 172 165 192 182 189 195 142 103 92 124 138 99 182 238 51 127 223 255 254 239 170 165 184 217 225 221 218 216 212 214 221 224 222 230 242 250 257 261 256 223 241 245 232 235 244 242 240 242 245 246 245 247 250 250
240 242 259 281 261 234 225 193 172 194 211 201 199 197 200 214 215 212 214 209 206 202 194 209 222 216 208 213 212 224 228 219 225 223 165 171 204 190 200 195 137 125 138 166 170 131 161 213 47 96 206 248 254 251 213 168 185 229 242 236 227 218 211 214 219 217 214 224 239 246 254 260 249 196 232 242 221 222 235 236 237 240 240 240 240 244 248 250
249 246 249 258 275 240 239 216 187 200 208 200 200 196 197 213 214 209 218 219 216 217 211 212 219 214 205 210 212 222 225 221 228 234 191 217 233 201 198 197 159 153 159 158 169 147 152 176 143 137 215 252 251 218 187 148 158 230 241 237 227 211 203 213 221 223 216 214 227 233 238 248 247 217 225 235 212 219 234 236 238 241 240 239 240 243 248 253
Height
1536 1537 1538 1538 1539 1539 1540 1540 1541 1541 1542 1542 1543 1544 1544 1545 1546 1547 1547 1548 1549 1549 1550 1550 1550 1550 1550 1550 1550 1550 1550 1550 1550 1549 1549 1549 1549 1549 1549 1550 1550 1550 1550 1550 1550 1550 1549 1549 1548 1548 1547 1547 1547 1548 1547 1548 1547 1548 1552 1556 1560 1564 1563 1560 1561 1560 1558 1557 1559 1560 1559 1560 1562 1563 1562 1563 1564 1563 1564 1565 1565 1565 1565 1566 1566 1567 1568 1569
1536 1536 1537 1538 1538 1539 1539 1540 1540 1541 1541 1542 1542 1543 1544 1545 1545 1546 1547 1548 1548 1549 1549 1549 1550 1550 1550 1550 1550 1550 1550 1550 1549 1549 1549 1548 1548 1549 1549 1550 1550 1550 1550 1550 1550 1550 1549 1549 1548 1548 1548 1548 1548 1548 1548 1548 1548 1550 1555 1558 1561 1563 1560 1557 1558 1557 1556 1556 1557 1559 1559 1560 1561 1561 1562 1563 1564 1564 1564 1565 1565 1565 1565 1565 1565 1566 1567 1568
1535 1536 1536 1537 1538 1538 1539 1540 1540 1541 1541 1542 1542 1543 1543 1544 1545 1546 1546 1547 1548 1548 1549 1549 1549 1549 1550 1550 1550 1550 1549 1549 1549 1549 1548 1548 1548 1549 1550 1550 1550 1550 1550 1550 1550 1549 1549 1549 1549 1548 1548 1548 1549 1549 1549 1549 1549 1550 1554 1558 1560 1559 1557 1557 1556 1556 1556 1555 1557 1558 1559 1559 1560 1561 1561 1562 1564 1564 1563 1563 1564 1564 1563 1564 1564 1565 1566 1566
1535 1535 1536 1537 1538 1538 1539 1540 1540 1541 1541 1542 1542 1543 1543 1544 1545 1545 1546 1547 1547 1548 1548 1549 1549 1549 1549 1549 1549 1549 1549 1549 1549 1549 1549 1548 1549 1549 1550 1550 1550 1550 1550 1550 1550 1549 1549 1549 1549 1549 1549 1549 1549 1549 1550 1550 1550 1551 1553 1557 1557 1556 1557 1557 1556 1556 1556 1557 1557 1558 1559 1560 1560 1561 1561 1561 1563 1564 1562 1561 1561 1561 1561 1562 1563 1564 1564 1565
1535 1535 1536 1537 1537 1538 1539 1539 1540 1541 1541 1542 1542 1542 1543 1544 1544 1545 1546 1546 1547 1547 1548 1548 1548 1549 1549 1549 1549 1549 1549 1550 1549 1549 1549 1549 1549 1550 1550 1550 1550 1550 1551 1550 1550 1550 1549 1549 1549 1549 1549 1550 1550 1550 1551 1551 1551 1552 1555 1555 1555 1556 1556 1556 1556 1556 1557 1557 1558 1558 1559 1559 1559 1560 1560 1560 1561 1561 1559 1559 1559 1560 1560 1561 1562 1562 1563 1564
1534 1535 1536 1536 1537 1538 1538 1539 1540 1540 1541 1541 1542 1543 1543 1544 1544 1545 1545 1546 1546 1547 1547 1548 1548 1548 1548 1548 1549 1548 1549 1550 1550 1549 1550 1550 1550 1550 1550 1550 1550 1551 1550 1550 1550 1550 1549 1549 1549 1549 1549 1550 1552 1552 1552 1552 1551 1554 1556 1555 1555 1555 1555 1556 1557 1557 1557 1558 1558 1558 1558 1558 1559 1559 1559 1559 1558 1558 1558 1558 1559 1559 1560 1560 1561 1561 1562 1563
1533 1534 1535 1536 1537 1537 1538 1539 1539 1540 1541 1541 1542 1543 1543 1544 1544 1544 1545 1545 1546 1546 1547 1547 1547 1548 1548 1548 1548 1548 1548 1549 1549 1549 1550 1550 1550 1550 1550 1550 1551 1550 1550 1550 1550 1550 1549 1549 1549 1549 1550 1551 1553 1553 1553 1553 1552 1553 1556 1556 1555 1555 1555 1556 1556 1557 1557 1557 1557 1558 1558 1558 1558 1558 1558 1557 1557 1557 1557 1557 1558 1558 1559 1560 1560 1561 1561 1562
1533 1534 1535 1535 1536 1537 1538 1538 1539 1540 1540 1541 1542 1542 1543 1543 1544 1544 1545 1545 1546 1546 1546 1547 1547 1547 1547 1548 1548 1548 1548 1548 1549 1549 1549 1549 1550 1550 1550 1551 1551 1550 1550 1550 1550 1550 1549 1549 1549 1550 1551 1552 1552 1553 1553 1553 1553 1554 1555 1555 1555 1555 1555 1556 1556 1557 1557 1557 1558 1558 1557 1557 1558 1558 1557 1556 1556 1556 1556 1556 1557 1557 1558 1559 1559 1560 1560 1561
1532 1533 1534 1535 1536 1536 1537 1538 1538 1539 1539 1540 1541 1542 1542 1543 1543 1544 1544 1545 1545 1545 1546 1546 1546 1547 1547 1547 1548 1548 1547 1548 1548 1548 1549 1549 1549 1550 1550 1550 1550 1550 1550 1550 1550 1550 1549 1549 1550 1550 1550 1552 1552 1553 1553 1553 1555 1555 1555 1555 1555 1555 1555 1556 1556 1556 1557 1557 1557 1557 1557 1557 1557 1557 1555 1554 1554 1555 1555 1556 1556 1557 1557 1558 1558 1559 1559 1559
1531 1531 1533 1534 1535 1536 1536 1537 1538 1538 1539 1540 1540 1541 1542 1542 1543 1543 1543 1544 1544 1545 1545 1545 1546 1546 1547 1547 1548 1548 1546 1547 1548 1548 1548 1548 1549 1549 1550 1550 1550 1550 1550 1550 1550 1550 1550 1550 1550 1550 1550 1551 1552 1553 1553 1553 1554 1554 1555 1555 1555 1555 1555 1555 1555 1555 1556 1556 1556 1556 1557 1556 1557 1557 1553 1551 1553 1553 1554 1555 1555 1556 1556 1557 1557 1558 1558 1558
1530 1530 1531 1532 1533 1535 1536 1537 1537 1538 1538 1539 1540 1540 1541 1541 1542 1542 1543 1543 1544 1544 1544 1545 1545 1546 1546 1546 1547 1546 1546 1546 1547 1547 1548 1548 1548 1549 1549 1549 1549 1550 1550 1550 1550 1550 1550 1550 1550 1550 1550 1551 1552 1553 1553 1553 1554 1554 1554 1554 1554 1554 1554 1554 1553 1554 1555 1555 1555 1555 1556 1556 1556 1555 1551 1549 1551 1552 1553 1554 1554 1555 1555 1556 1556 1556 1557 1557
1529 1530 1530 1531 1532 1533 1534 1535 1536 1537 1538 1538 1539 1539 1540 1540 1541 1541 1542 1542 1543 1543 1544 1544 1544 1545 1545 1546 1545 1546 1546 1546 1546 1547 1547 1547 1548 1548 1549 1549 1549 1549 1550 1550 1550 1550 1550 1550 1550 1550 1551 1552 1552 1553 1553 1553 1554 1554 1554 1555 1554 1554 1553 1552 1551 1552 1553 1554 1554 1555 1557 1555 1554 1551 1548 1549 1550 1551 1552 1553 1553 1554 1554 1555 1555 1555 1555 1555
1528 1529 1530 1530 1531 1532 1533 1534 1535 1536 1537 1537 1538 1538 1539 1539 1540 1540 1541 1541 1542 1542 1543 1543 1544 1544 1545 1544 1544 1545 1545 1545 1545 1546 1546 1547 1547 1547 1548 1548 1549 1549 1549 1550 1550 1550 1550 1550 1550 1551 1551 1552 1552 1553 1553 1553 1553 1554 1555 1556 1556 1556 1553 1550 1551 1551 1553 1554 1553 1556 1559 1553 1548 1547 1547 1548 1549 1549 1551 1551 1552 1552 1553 1553 1553 1553 1553 1554
1527 1528 1528 1529 1530 1531 1532 1533 1534 1535 1536 1536 1537 1537 1538 1538 1539 1539 1539 1540 1541 1541 1542 1542 1543 1543 1544 1543 1543 1543 1544 1544 1545 1545 1545 1546 1546 1547 1547 1548 1548 1549 1549 1549 1550 1550 1550 1550 1551 1551 1552 1552 1552 1553 1554 1554 1554 1555 1556 1558 1560 1560 1554 1550 1551 1551 1552 1554 1553 1556 1560 1551 1544 1545 1546 1547 1547 1548 1549 1549 1550 1551 1551 1551 1551 1551 1551 1552
1526 1527 1527 1528 1529 1530 1531 1531 1532 1533 1534 1535 1536 1536 1536 1537 1537 1538 1538 1539 1539 1540 1541 1542 1542 1542 1543 1541 1541 1542 1542 1542 1543 1544 1544 1545 1545 1546 1547 1547 1548 1548 1549 1549 1549 1550 1550 1550 1551 1551 1552 1552 1552 1554 1555 1556 1555 1557 1558 1560 1564 1563 1556 1551 1550 1550 1551 1553 1553 1555 1559 1552 1544 1544 1544 1545 1546 1547 1547 1547 1548 1548 1549 1549 1549 1549 1549 1550
1524 1525 1526 1527 1528 1529 1529 1530 1531 1532 1532 1533 1534 1535 1535 1536 1536 1537 1537 1538 1539 1539 1540 1541 1541 1542 1542 1540 1540 1540 1540 1540 1541 1542 1543 1543 1544 1545 1546 1546 1547 1547 1548 1548 1549 1549 1550 1550 1551 1552 1552 1552 1553 1555 1557 1559 1559 1560 1560 1560 1562 1562 1559 1554 1550 1550 1550 1551 1553 1554 1554 1549 1544 1543 1543 1545 1545 1546 1546 1546 1546 1546 1546 1546 1547 1547 1547 1548
1522 1523 1524 1526 1527 1527 1528 1529 1530 1530 1531 1531 1532 1533 1534 1535 1535 1535 1536 1537 1538 1538 1539 1540 1540 1542 1540 1538 1538 1537 1537 1538 1539 1541 1541 1542 1543 1544 1545 1546 1546 1547 1547 1548 1548 1549 1549 1550 1551 1552 1552 1553 1555 1555 1560 1564 1561 1561 1562 1562 1561 1561 1560 1557 1551 1550 1551 1551 1552 1553 1553 1548 1543 1543 1544 1544 1544 1545 1544 1543 1543 1543 1544 1544 1544 1544 1544 1545
1521 1521 1522 1523 1524 1526 1526 1527 1528 1529 1529 1530 1531 1532 1533 1534 1534 1535 1535 1536 1537 1539 1540 1540 1541 1542 1539 1535 1535 1534 1534 1537 1538 1539 1540 1541 1542 1543 1544 1545 1545 1546 1546 1547 1548 1548 1550 1550 1552 1553 1554 1555 1555 1556 1560 1561 1556 1556 1560 1560 1559 1559 1560 1558 1553 1550 1550 1552 1552 1554 1554 1549 1543 1543 1543 1543 1544 1544 1541 1540 1541 1541 1542 1542 1542 1542 1542 1542
1519 1520 1520 1521 1522 1523 1524 1525 1527 1527 1527 1529 1530 1531 1532 1533 1533 1534 1534 1535 1535 1536 1537 1535 1536 1538 1534 1531 1532 1533 1533 1535 1536 1538 1539 1540 1541 1542 1543 1544 1544 1545 1545 1547 1548 1549 1549 1551 1553 1555 1555 1554 1554 1553 1553 1552 1550 1552 1554 1555 1556 1556 1556 1555 1552 1549 1549 1552 1552 1552 1551 1547 1542 1541 1540 1541 1542 1541 1539 1539 1540 1540 1539 1539 1539 1539 1539 1538
1518 1518 1519 1519 1520 1521 1522 1523 1525 1525 1526 1527 1528 1530 1531 1531 1532 1533 1532 1532 1531 1531 1531 1530 1530 1531 1531 1530 1531 1532 1533 1534 1535 1536 1537 1538 1540 1541 1542 1543 1544 1544 1545 1546 1548 1549 1549 1553 1554 1552 1550 1549 1551 1551 1549 1550 1552 1552 1553 1555 1556 1556 1555 1551 1549 1548 1548 1551 1550 1549 1548 1545 1542 1539 1537 1539 1541 1540 1539 1537 1537 1536 1536 1535 1535 1535 1535 1535
1516 1517 1517 1518 1518 1519 1520 1521 1522 1523 1524 1525 1527 1528 1528 1529 1530 1530 1529 1528 1528 1528 1528 1529 1529 1529 1529 1530 1530 1530 1531 1532 1533 1534 1536 1537 1539 1540 1541 1542 1543 1545 1545 1546 1548 1548 1550 1553 1551 1546 1545 1546 1549 1550 1550 1551 1552 1553 1554 1556 1557 1559 1555 1549 1548 1548 1548 1550 1548 1546 1548 1545 1540 1538 1536 1537 1539 1536 1534 1533 1532 1531 1531 1531 1531 1531 1532 1533
1515 1515 1515 1516 1517 1518 1519 1519 1520 1521 1522 1523 1524 1526 1526 1527 1527 1528 1528 1526 1525 1525 1526 1527 1528 1527 1528 1529 1529 1530 1530 1531 1532 1533 1534 1536 1537 1538 1539 1541 1541 1543 1545 1546 1547 1551 1554 1552 1545 1541 1545 1547 1549 1550 1551 1552 1552 1554 1556 1558 1558 1558 1555 1550 1548 1549 1549 1550 1547 1546 1548 1543 1537 1536 1534 1534 1533 1529 1527 1527 1526 1525 1526 1526 1526 1527 1528 1529
1513 1513 1514 1514 1515 1516 1517 1517 1518 1518 1519 1521 1522 1524 1525 1526 1526 1527 1528 1526 1523 1522 1522 1523 1523 1524 1525 1527 1527 1529 1528 1528 1529 1530 1531 1533 1535 1536 1537 1538 1540 1542 1545 1544 1545 1550 1553 1547 1539 1539 1545 1547 1548 1550 1551 1553 1554 1554 1556 1558 1557 1556 1555 1551 1549 1549 1549 1549 1547 1546 1547 1541 1535 1533 1530 1527 1526 1524 1523 1523 1522 1522 1521 1521 1521 1522 1523 1523
1510 1511 1513 1512 1514 1514 1514 1516 1515 1515 1517 1519 1521 1523 1524 1525 1526 1526 1527 1526 1522 1518 1517 1519 1519 1518 1520 1523 1524 1526 1526 1526 1526 1526 1529 1531 1532 1535 1535 1536 1539 1542 1543 1541 1541 1543 1543 1539 1536 1538 1543 1545 1547 1549 1551 1553 1554 1553 1553 1555 1554 1552 1552 1550 1550 1550 1548 1549 1548 1547 1547 1536 1529 1529 1524 1521 1523 1522 1520 1520 1518 1517 1517 1517 1518 1518 1518 1519
1508 1510 1510 1511 1513 1512 1514 1514 1511 1514 1516 1517 1520 1521 1523 1524 1525 1526 1527 1527 1522 1516 1514 1515 1514 1513 1515 1520 1521 1522 1524 1523 1523 1524 1525 1527 1529 1532 1533 1534 1537 1539 1540 1540 1542 1542 1538 1536 1536 1538 1542 1545 1546 1548 1549 1551 1553 1552 1549 1548 1547 1547 1547 1549 1551 1551 1552 1553 1549 1551 1551 1535 1523 1526 1522 1519 1522 1519 1516 1516 1513 1511 1512 1513 1513 1513 1514 1516
1506 1507 1508 1509 1510 1511 1513 1510 1510 1514 1514 1515 1518 1519 1523 1523 1525 1526 1526 1531 1525 1512 1511 1512 1510 1508 1509 1514 1516 1522 1526 1520 1519 1522 1523 1525 1527 1527 1531 1533 1533 1535 1537 1540 1542 1540 1536 1534 1535 1537 1540 1543 1546 1548 1546 1547 1553 1553 1545 1542 1544 1545 1547 1548 1550 1552 1555 1555 1551 1552 1554 1540 1524 1522 1519 1519 1520 1515 1513 1513 1509 1507 1508 1508 1508 1508 1510 1512
1502 1504 1506 1507 1508 1508 1509 1508 1510 1512 1511 1514 1516 1518 1521 1521 1526 1525 1526 1539 1527 1503 1503 1507 1505 1504 1504 1508 1511 1518 1522 1515 1515 1521 1520 1523 1525 1525 1528 1530 1531 1533 1534 1538 1540 1535 1531 1533 1535 1537 1538 1542 1545 1546 1543 1544 1550 1550 1543 1541 1543 1544 1546 1547 1549 1552 1554 1555 1554 1551 1554 1550 1533 1520 1517 1517 1517 1514 1511 1510 1506 1503 1503 1503 1504 1505 1506 1508
1498 1501 1503 1504 1505 1505 1506 1507 1508 1508 1510 1513 1513 1517 1519 1521 1526 1523 1530 1542 1519 1493 1497 1501 1500 1501 1502 1506 1508 1511 1512 1509 1513 1518 1518 1521 1524 1523 1525 1526 1527 1529 1529 1532 1535 1531 1528 1531 1533 1534 1538 1541 1540 1539 1539 1541 1544 1544 1542 1544 1544 1544 1546 1547 1550 1554 1556 1559 1556 1550 1553 1554 1535 1519 1519 1518 1517 1514 1509 1505 1501 1498 1498 1499 1500 1502 1503 1504
1495 1498 1499 1502 1503 1502 1503 1504 1505 1508 1512 1512 1513 1516 1517 1521 1524 1522 1534 1535 1504 1488 1495 1496 1498 1501 1501 1506 1508 1507 1508 1509 1511 1513 1516 1520 1521 1522 1523 1524 1525 1527 1527 1527 1528 1529 1529 1529 1529 1531 1535 1535 1534 1535 1536 1538 1539 1540 1543 1544 1545 1547 1549 1551 1552 1553 1557 1561 1556 1548 1551 1550 1530 1513 1517 1520 1516 1511 1504 1499 1496 1494 1495 1496 1496 1498 1499 1501
1492 1494 1496 1499 1499 1498 1500 1499 1502 1508 1511 1512 1513 1515 1517 1520 1521 1528 1540 1524 1495 1491 1495 1494 1497 1499 1500 1505 1508 1508 1508 1509 1510 1512 1517 1519 1520 1522 1522 1523 1525 1527 1528 1527 1528 1529 1529 1529 1529 1529 1530 1529 1531 1536 1537 1537 1537 1539 1541 1542 1546 1550 1550 1553 1555 1554 1559 1558 1549 1543 1543 1547 1537 1517 1512 1513 1506 1502 1499 1495 1493 1492 1493 1493 1493 1494 1495 1497
1489 1491 1493 1495 1494 1494 1495 1494 1498 1505 1508 1509 1512 1513 1516 1519 1520 1527 1528 1508 1491 1492 1493 1494 1497 1497 1498 1500 1504 1507 1508 1510 1510 1511 1515 1518 1520 1521 1522 1524 1526 1529 1533 1530 1529 1531 1530 1529 1529 1528 1527 1528 1531 1535 1538 1538 1538 1538 1540 1542 1548 1553 1553 1557 1559 1560 1562 1553 1541 1539 1540 1547 1542 1520 1508 1505 1500 1499 1498 1494 1492 1491 1491 1490 1490 1491 1492 1494
1487 1488 1489 1490 1490 1491 1490 1489 1495 1503 1504 1506 1510 1511 1513 1520 1522 1517 1508 1497 1491 1487 1486 1490 1493 1494 1497 1497 1499 1503 1505 1508 1510 1510 1512 1515 1518 1518 1517 1518 1520 1528 1534 1531 1531 1532 1530 1528 1529 1527 1527 1527 1529 1534 1540 1541 1540 1539 1540 1545 1553 1559 1561 1561 1561 1563 1561 1549 1541 1543 1544 1544 1532 1511 1504 1503 1498 1497 1495 1492 1491 1490 1489 1488 1489 1489 1490 1492
1484 1485 1486 1486 1486 1486 1487 1489 1496 1501 1501 1503 1509 1510 1512 1519 1516 1503 1494 1489 1483 1479 1480 1485 1488 1491 1495 1497 1500 1501 1503 1507 1508 1509 1510 1512 1516 1516 1514 1514 1514 1518 1523 1527 1532 1534 1531 1530 1529 1528 1526 1524 1524 1529 1536 1538 1539 1539 1539 1543 1552 1562 1567 1564 1562 1561 1555 1545 1543 1547 1545 1538 1522 1503 1497 1496 1492 1491 1490 1489 1489 1487 1488 1487 1488 1489 1489 1490
1481 1482 1482 1482 1483 1484 1485 1489 1493 1497 1500 1502 1505 1510 1515 1516 1506 1495 1487 1479 1474 1477 1480 1481 1486 1492 1494 1495 1497 1497 1501 1506 1507 1508 1510 1512 1516 1516 1514 1514 1514 1513 1517 1525 1530 1531 1531 1527 1522 1522 1520 1518 1518 1520 1522 1528 1535 1536 1534 1537 1543 1549 1553 1552 1551 1549 1543 1541 1546 1549 1540 1526 1511 1497 1490 1489 1488 1489 1488 1487 1486 1485 1485 1486 1486 1487 1486 1487
1477 1479 1479 1480 1480 1481 1483 1486 1489 1494 1498 1499 1501 1505 1508 1506 1498 1491 1482 1473 1474 1479 1481 1482 1486 1494 1496 1496 1496 1494 1496 1502 1505 1508 1510 1510 1511 1510 1509 1508 1509 1511 1514 1521 1523 1526 1528 1520 1513 1514 1513 1513 1516 1516 1518 1525 1534 1537 1535 1537 1538 1535 1533 1538 1545 1544 1543 1545 1546 1543 1530 1511 1500 1491 1488 1490 1489 1487 1487 1485 1484 1483 1482 1483 1483 1483 1483 1484
1474 1475 1476 1475 1474 1476 1480 1482 1485 1490 1492 1495 1500 1499 1493 1486 1481 1479 1474 1470 1472 1476 1482 1487 1488 1493 1498 1497 1497 1496 1494 1497 1504 1507 1508 1509 1506 1504 1502 1499 1500 1503 1503 1508 1514 1520 1524 1519 1514 1515 1514 1514 1516 1516 1518 1521 1527 1535 1538 1534 1533 1531 1528 1535 1545 1548 1549 1546 1536 1530 1519 1506 1499 1489 1483 1487 1486 1485 1487 1483 1482 1482 1481 1482 1480 1480 1481 1481
1470 1471 1471 1469 1468 1472 1476 1478 1481 1486 1488 1491 1492 1486 1480 1474 1468 1468 1469 1467 1469 1472 1478 1484 1484 1487 1493 1494 1494 1494 1493 1496 1502 1504 1506 1508 1503 1496 1497 1495 1495 1497 1494 1497 1505 1507 1511 1514 1515 1516 1515 1516 1516 1516 1519 1519 1521 1530 1534 1529 1529 1533 1532 1535 1543 1547 1550 1546 1532 1523 1514 1505 1503 1492 1482 1485 1486 1485 1484 1481 1480 1481 1480 1479 1477 1477 1478 1479
1467 1468 1465 1461 1464 1468 1472 1475 1478 1482 1484 1486 1485 1478 1473 1469 1463 1463 1465 1465 1467 1470 1472 1473 1474 1476 1482 1486 1488 1489 1490 1493 1499 1501 1501 1504 1496 1484 1489 1492 1490 1491 1491 1494 1500 1500 1503 1509 1515 1518 1517 1517 1517 1517 1521 1522 1521 1523 1524 1523 1526 1532 1534 1538 1543 1542 1544 1544 1529 1519 1514 1505 1500 1491 1481 1482 1484 1480 1479 1478 1479 1479 1477 1474 1473 1474 1476 1477
1464 1465 1458 1454 1459 1463 1467 1470 1473 1477 1476 1477 1481 1475 1465 1461 1460 1461 1463 1463 1464 1468 1467 1464 1466 1471 1475 1477 1480 1485 1487 1486 1493 1497 1494 1496 1490 1478 1479 1483 1484 1487 1489 1493 1497 1498 1500 1504 1512 1519 1519 1518 1518 1518 1522 1524 1524 1523 1523 1524 1525 1526 1528 1532 1535 1534 1535 1536 1526 1516 1509 1495 1486 1482 1476 1476 1476 1474 1473 1475 1476 1475 1471 1470 1470 1471 1473 1474
1462 1460 1452 1449 1454 1458 1463 1466 1467 1469 1466 1465 1467 1461 1455 1456 1459 1460 1461 1461 1462 1465 1464 1461 1463 1469 1471 1472 1474 1477 1481 1481 1486 1489 1486 1485 1484 1477 1475 1477 1480 1484 1488 1492 1494 1496 1500 1502 1508 1519 1523 1519 1516 1513 1513 1514 1516 1519 1522 1525 1525 1526 1528 1529 1529 1528 1528 1528 1525 1519 1502 1480 1473 1474 1470 1469 1471 1469 1471 1473 1472 1470 1467 1466 1468 1469 1470 1471
1459 1457 1448 1447 1451 1454 1460 1463 1460 1460 1459 1458 1456 1452 1452 1454 1455 1457 1459 1460 1461 1461 1461 1461 1462 1463 1465 1469 1470 1469 1475 1479 1481 1483 1480 1478 1477 1473 1471 1471 1475 1481 1487 1495 1495 1492 1497 1500 1505 1516 1520 1514 1509 1507 1507 1506 1506 1508 1511 1514 1514 1517 1523 1527 1527 1526 1525 1521 1517 1517 1500 1472 1466 1470 1467 1466 1468 1467 1469 1470 1469 1467 1465 1465 1466 1467 1468 1469
1454 1451 1444 1446 1449 1451 1455 1456 1454 1454 1453 1450 1447 1448 1451 1452 1452 1455 1457 1460 1461 1461 1461 1460 1459 1459 1459 1462 1464 1465 1469 1474 1477 1478 1474 1471 1469 1466 1465 1467 1470 1474 1479 1487 1486 1483 1489 1496 1502 1510 1513 1509 1507 1507 1507 1506 1505 1506 1507 1506 1508 1510 1511 1515 1518 1519 1522 1516 1511 1519 1508 1474 1463 1469 1467 1467 1467 1466 1468 1468 1467 1466 1464 1464 1465 1465 1467 1467
1447 1444 1443 1445 1447 1448 1451 1450 1449 1451 1449 1445 1444 1446 1449 1450 1452 1455 1455 1457 1459 1458 1460 1458 1456 1456 1455 1456 1460 1462 1464 1467 1470 1470 1467 1466 1465 1462 1463 1464 1467 1470 1472 1477 1480 1482 1488 1494 1498 1505 1509 1507 1506 1506 1506 1507 1506 1507 1508 1506 1507 1506 1502 1505 1508 1509 1513 1510 1507 1521 1510 1475 1464 1469 1467 1468 1468 1466 1468 1467 1466 1466 1464 1464 1465 1465 1466 1466
1442 1442 1442 1444 1445 1445 1444 1443 1444 1448 1448 1447 1446 1447 1448 1449 1450 1451 1451 1452 1453 1453 1455 1454 1453 1453 1452 1452 1455 1457 1458 1460 1463 1462 1461 1463 1461 1458 1460 1462 1464 1467 1467 1469 1474 1479 1487 1492 1496 1504 1510 1509 1509 1509 1506 1507 1507 1505 1504 1504 1503 1501 1502 1506 1508 1510 1510 1499 1499 1513 1499 1469 1465 1470 1466 1468 1468 1466 1467 1466 1465 1466 1464 1463 1464 1464 1465 1466
1440 1439 1439 1440 1441 1439 1436 1435 1438 1443 1447 1448 1447 1446 1446 1446 1446 1446 1448 1450 1450 1451 1451 1449 1449 1450 1450 1450 1452 1453 1452 1452 1455 1457 1458 1460 1458 1456 1458 1460 1461 1461 1461 1462 1464 1469 1478 1484 1488 1496 1502 1500 1498 1494 1491 1495 1502 1502 1499 1500 1500 1500 1502 1503 1504 1510 1505 1493 1496 1502 1484 1464 1466 1469 1465 1467 1468 1465 1465 1464 1464 1465 1463 1462 1463 1463 1463 1463
1435 1433 1433 1435 1435 1433 1431 1431 1433 1437 1441 1444 1446 1444 1444 1444 1442 1443 1446 1448 1448 1448 1447 1446 1447 1449 1449 1449 1450 1452 1451 1448 1450 1453 1455 1456 1455 1455 1455 1457 1459 1460 1460 1462 1463 1466 1472 1476 1476 1477 1480 1476 1471 1470 1473 1480 1492 1494 1490 1493 1496 1496 1497 1499 1501 1501 1496 1496 1496 1486 1472 1466 1466 1466 1465 1465 1465 1464 1463 1463 1463 1462 1461 1461 1462 1462 1462 1462
1431 1426 1425 1427 1427 1424 1424 1426 1429 1431 1434 1437 1438 1437 1439 1440 1439 1441 1444 1443 1442 1445 1446 1446 1446 1448 1448 1448 1448 1449 1448 1449 1450 1451 1452 1453 1453 1454 1455 1456 1458 1459 1461 1463 1464 1466 1470 1472 1468 1466 1465 1459 1455 1462 1470 1472 1477 1480 1481 1487 1490 1491 1494 1498 1496 1487 1486 1497 1490 1469 1470 1476 1464 1459 1463 1462 1463 1465 1462 1461 1460 1459 1460 1460 1460 1460 1460 1460
1428 1422 1418 1420 1420 1417 1416 1419 1422 1426 1428 1431 1432 1431 1433 1436 1437 1438 1438 1437 1438 1441 1445 1446 1445 1444 1443 1442 1444 1445 1446 1450 1451 1448 1449 1451 1452 1454 1455 1456 1458 1458 1460 1463 1464 1467 1469 1467 1463 1463 1463 1456 1453 1463 1470 1468 1469 1473 1475 1480 1483 1486 1490 1489 1484 1478 1481 1489 1476 1459 1470 1473 1456 1452 1458 1458 1460 1460 1456 1456 1457 1457 1459 1458 1458 1458 1457 1457
1424 1421 1417 1417 1416 1412 1412 1413 1417 1421 1423 1426 1429 1429 1431 1432 1432 1431 1431 1434 1436 1437 1440 1441 1438 1437 1438 1439 1441 1442 1442 1444 1445 1444 1445 1448 1450 1452 1452 1455 1457 1458 1459 1462 1465 1468 1469 1466 1464 1465 1467 1461 1456 1463 1469 1468 1471 1473 1474 1476 1478 1478 1479 1477 1476 1476 1478 1479 1468 1460 1467 1463 1449 1450 1453 1453 1455 1454 1452 1455 1455 1454 1455 1455 1455 1455 1454 1454
1421 1420 1417 1416 1413 1410 1410 1411 1414 1418 1418 1421 1424 1425 1427 1428 1428 1427 1426 1428 1431 1431 1433 1433 1430 1430 1434 1436 1438 1437 1434 1432 1433 1435 1439 1443 1446 1448 1447 1448 1452 1458 1461 1461 1465 1468 1469 1468 1467 1467 1470 1465 1458 1461 1468 1471 1471 1471 1474 1476 1474 1471 1474 1476 1477 1476 1478 1477 1468 1465 1468 1457 1445 1449 1451 1449 1452 1452 1451 1452 1450 1450 1451 1451 1451 1451 1451 1451
1418 1418 1417 1417 1413 1409 1408 1408 1411 1414 1415 1415 1418 1420 1422 1422 1421 1422 1422 1421 1422 1424 1425 1425 1425 1428 1432 1434 1436 1433 1429 1428 1427 1429 1433 1437 1439 1441 1441 1442 1446 1454 1461 1461 1462 1465 1467 1470 1470 1470 1473 1467 1458 1461 1469 1471 1473 1475 1473 1468 1464 1467 1472 1474 1471 1469 1471 1471 1469 1472 1470 1452 1442 1447 1449 1447 1449 1449 1447 1446 1446 1447 1447 1447 1447 1447 1447 1448
1415 1415 1415 1417 1413 1408 1406 1406 1407 1408 1408 1409 1411 1414 1416 1416 1416 1419 1422 1420 1419 1420 1421 1420 1421 1427 1430 1431 1429 1424 1422 1425 1428 1430 1433 1435 1436 1437 1439 1440 1441 1447 1455 1460 1461 1463 1464 1467 1470 1473 1472 1465 1460 1463 1467 1472 1477 1475 1460 1447 1449 1460 1466 1465 1464 1461 1461 1464 1466 1466 1456 1440 1437 1445 1446 1445 1446 1444 1442 1442 1442 1442 1443 1443 1443 1443 1444 1445